Regional Weather Roundup
Issued by NWS Midland/Odessa, TX

Home | Current Version | Previous Version | Text Only | Print | Product List | Glossary On
Versions: 1 2 3 4 5 6 7 8 9 10 11 12 13 14 15 16 17 18 19 20 21 22 23 24 25 26 27 28 29 30 31 32 33 34 35 36 37 38 39 40 41 42 43 44 45 46 47 48 49 50
000
ASUS44 KMAF 171010
RWRMAF
MIDLAND AREA WEATHER ROUNDUP
NATIONAL WEATHER SERVICE MIDLAND TX
500 AM CDT THU AUG 17 2017

...IN SOUTHWEST TEXAS AND SOUTHEAST NEW MEXICO...

CITY           SKY/WX    TMP DP  RH WIND       PRES   REMARKS
ALPINE         CLOUDY    69  59  68 SW7       30.17F
ANDREWS        FAIR      71  67  89 SE5       30.05S
ARTESIA        CLEAR     68  55  64 W5        30.06S
BIG SPRING     CLOUDY    71  67  87 CALM      30.04S
CARLSBAD       CLEAR     68  64  87 S3        30.02F
DRYDEN           N/A     76  68  76 E8        29.98S
FORT STOCKTON  NOT AVBL
GUAD PASS      CLEAR     75  45  34 NE5       30.20S
HOBBS          CLEAR     68  64  88 SE6       30.07S
MARFA          CLEAR     60  57  89 NE5       30.17S
MIDLAND AIRPK  CLEAR     76  66  72 S8        30.03S
MIDLAND INTL   CLEAR     75  67  76 S13       30.02F
ODESSA         CLEAR     74  67  78 SE10      30.04S
PECOS          CLEAR     71  58  62 CALM      29.99S
PRESIDIO       FAIR      80  65  59 NE3       30.03S
SEMINOLE       CLEAR     67  64  89 CALM      30.07S
SNYDER         CLOUDY    69  64  83 CALM      30.03S
WINK           CLEAR     76  68  76 E10       29.99S
$$
...OTHER STATIONS IN TEXAS...

CITY           SKY/WX    TMP DP  RH WIND       PRES   REMARKS
ABILENE        CLOUDY    76  66  71 N7        30.01R
AMARILLO       CLEAR     67  59  75 E7        30.12S
AUSTIN         PTCLDY    81  76  84 SW7       29.99S
BROWNSVILLE    CLOUDY    80  79  96 S8        29.95F
CORPUS CHRISTI PTCLDY    81  79  94 S9        29.96S
DALLAS FTW     CLOUDY    83  74  74 S17       29.90F THUNDER
DEL RIO        PTCLDY    80  70  71 E7        29.93R
EL PASO        FAIR      73  62  68 S3        30.06S
HOUSTON INT    MOCLDY    83  78  85 S7        30.00S
LUBBOCK        CLEAR     70  64  83 N3        30.08S
SAN ANGELO     CLOUDY    73  65  75 S7        30.00R
SAN ANTONIO    MOCLDY    81  74  79 S10       30.00R
WACO           CLOUDY    82  75  79 S16       29.97R
WICHITA FALLS  NOT AVBL
$$
...OTHER LOCATIONS IN NEW MEXICO...

CITY           SKY/WX    TMP DP  RH WIND       PRES   REMARKS
ALAMOGORDO     CLEAR     66  46  48 CALM      30.10S
ALBUQUERQUE    MOCLDY    68  42  38 E7        30.17S
CANNON AFB     CLEAR     64  64 100 E7        30.14S
CLOVIS         CLEAR     63  60  90 E6        30.14S
HOLLOMAN AFB   CLEAR     67  49  53 E5        30.09F
ROSWELL        CLEAR     68  55  63 SW7       30.06S
RUIDOSO        CLEAR     61  41  48 W6        30.29S
SANTA FE       CLOUDY    58  39  49 CALM      30.23S
TRUTH OR CONSE FAIR      70  40  33 CALM      30.12S
TUCUMCARI      CLOUDY    64  58  80 CALM      30.11R
$$




USA.gov is the U.S. government's official web portal to all federal, state and local government web resources and services.